Regional Weather Roundup
Issued by NWS

Home | Current Version | Previous Version | Graphics & Text | Print | Product List | Glossary Off
Versions: 1 2 3 4 5 6 7 8 9 10 11 12 13 14 15 16 17 18 19 20 21 22 23 24 25 26 27 28 29 30 31 32 33 34 35 36 37 38 39 40 41 42 43 44 45 46 47 48 49 50

352
ASUS43 KDTX 101310
RWRMI
MICHIGAN HOURLY REGIONAL WEATHER ROUNDUP
NATIONAL WEATHER SERVICE DETROIT/PONTIAC MI
800 AM EST WED FEB 10 2016

NOTE: "FAIR" INDICATES FEW OR NO CLOUDS BELOW 12,000 FEET WITH NO
SIGNIFICANT WEATHER AND/OR OBSTRUCTION TO VISIBILITY.

MIZ047>049-052>055-059>063-066>070-074>076-081>083-101400-
SOUTHEAST LOWER MICHIGAN

CITY           SKY/WX    TMP DP  RH WIND       PRES   REMARKS
ADRIAN         MOCLDY    19  11  70 NW12      29.82R WCI   7
ALMA           CLOUDY    18  10  71 NW9G16    29.81R WCI   6
ANN ARBOR      LGT SNOW  18  14  84 W13       29.78R FOG     WCI   5
BAD AXE        LGT SNOW  16  13  88 NW10G16   29.74R WCI   3
CARO           CLOUDY    16  10  79 NW14      29.76R WCI   1
DETROIT CITY   LGT SNOW  20  13  74 W9        29.77R WCI   9
DETROIT        LGT SNOW  19  14  79 W13       29.79R WCI   7
FLINT          FLURRIES  18  10  71 NW15      29.78R WCI   4
GROSSE ILE     CLOUDY    21  14  73 W12       29.78R WCI   9
HILLSDALE      LGT SNOW  17  14  86 NW8       29.79S WCI   7
HOWELL         LGT SNOW  18  15  85 NW9G17    29.77R WCI   7

CITY           SKY/WX    TMP DP  RH WIND       PRES   REMARKS
JACKSON        LGT SNOW  17  12  80 W8        29.79R WCI   7
LAMBERTVILLE   CLOUDY    19  13  77 W9        29.82R WCI   8
LANSING        MOCLDY    17   8  67 NW10      29.81R WCI   5
LAPEER         MOCLDY    15  10  79 NW10G17   29.75R WCI   2
MASON          CLOUDY    17  12  78 W14       29.79R WCI   3
MONROE         CLOUDY    20  14  76 W14       29.80R WCI   7
MT. CLEMENS    FLURRIES  21  15  77 W16       29.74R WCI   7
PONTIAC        LGT SNOW  17  12  80 NW12      29.75R VSB 3/4 WCI   4
PORT HOPE        N/A     18  14  84 NW20G28   29.71R WCI   2
PORT HURON     FLURRIES  19  14  79 W10       29.74R WCI   8
TRI CITIES     CLOUDY    16   9  74 NW13      29.80R HAZE    WCI   2
MIDLAND        CLOUDY    15   7  69 NW8G16    29.79R WCI   4
TROY           LGT SNOW  20  17  84 NW13      29.78R VSB 3/4 WCI   8
SAGINAW HB     CLOUDY    18  10  73 NW12      29.79R WCI   5
$$
MIZ043>046-050>051-056>058-064>065-071>073-077>080-101400-
SOUTHWEST LOWER MICHIGAN

CITY           SKY/WX    TMP DP  RH WIND       PRES   REMARKS
BATTLE CREEK   CLOUDY    17   9  70 NW10      29.83R WCI   5
BENTON HARBOR  LGT SNOW  19  11  70 NW9G21    29.91R VSB 1   WCI   8
BIG RAPIDS     LGT SNOW  15  11  83 NW5       29.80R WCI   8
COLDWATER      FLURRIES  19  14  82 NW7       29.83R WCI   9
FREMONT        CLOUDY    16  11  78 NW13G18   29.84S WCI   3
HOLLAND        LGT SNOW  18  14  84 NW7       29.87S VSB 3/4 WCI   9
GRAND RAPIDS   FLURRIES  18  12  77 NW14G21   29.83S WCI   4
IONIA          CLOUDY    17   9  70 NW13      29.82R WCI   4
KALAMAZOO      LGT SNOW  18  13  80 NW10      29.84R VSB 1   WCI   6
LUDINGTON      FLURRIES  16   8  70 NW14G26   29.88R WCI   1
MARSHALL       CLOUDY    18  10  71 NW8       29.81R WCI   8
MOUNT PLEASANT CLOUDY    17   7  63 NW8       29.79R WCI   7
MUSKEGON       LGT SNOW  18  10  71 NW15      29.88R WCI   4
SOUTH HAVEN    LGT SNOW  20  13  76 NW13G20   29.87F WCI   7
$$
MIZ016>042-101400-
NORTHERN LOWER MICHIGAN

CITY           SKY/WX    TMP DP  RH WIND       PRES   REMARKS
ALPENA         LGT SNOW   8   2  76 NW9       29.76S WCI  -5
BEAVER ISLAND  CLOUDY    12   2  66 N12G20    29.84R WCI  -2
BELLAIRE       LGT SNOW  13  10  88 N3        29.83R VSB 1
CADILLAC       FLURRIES  13   7  77 NW9       29.75R WCI   0
CHARLEVOIX     LGT SNOW  14   8  79 N13G21    29.84S WCI  -1
FRANKFORT      LGT SNOW  16  11  80 NW9G17    29.85S WCI   4
GAYLORD        CLOUDY     7   0  73 VRB7      29.73S WCI  -5
GRAYLING       CLOUDY     9   3  76 NW8       29.76R HAZE    WCI  -3
HARBOR SPRINGS CLOUDY     9   0  66 N7        29.81S WCI  -3
HOUGHTON LAKE  CLOUDY    10   3  73 N9        29.76R HAZE    WCI  -3
MANISTEE       CLOUDY    16   7  67 NW13G23   29.86R WCI   2
OSCODA         LGT SNOW  10   5  79 MISG      29.76R
PELLSTON       CLOUDY     8   1  73 NW12      29.81S WCI  -7
ROGERS CITY    LGT SNOW   9   3  79 NW13G21   29.78S WCI  -7
TRAVERSE CITY  FLURRIES  17   5  59 N14G23    29.81S WCI   3
$$
MIZ007>008-015-101400-
EASTERN UPPER MICHIGAN

CITY           SKY/WX    TMP DP  RH WIND       PRES   REMARKS
KINROSS        CLOUDY     1  -2  85 N14       29.80R WCI -17
MACKINAC ISLAN CLOUDY     6   1  81 N8        29.80S WCI  -7
NEWBERRY       MOCLDY     7   2  81 N10G16    29.82R WCI  -8
S. S. MARIE    CLOUDY     2 -10  57 N13G20    29.82R WCI -15
MUNISING         N/A     10   6  84 N25G31    29.89R WCI -11
$$
MIZ004>006-011>014-085-101400-
CENTRAL UPPER MICHIGAN

CITY           SKY/WX    TMP DP  RH WIND       PRES   REMARKS
MANISTIQUE     PTCLDY     8   3  78 N9        29.86R WCI  -5
ESCANABA       PTCLDY     7  -2  66 NW15G22   29.91R WCI -11
MENOMINEE      CLEAR      5  -6  61 NW10      29.95S WCI -10
SAWYER-GWINN   LGT SNOW   3   0  85 NW16      29.87R WCI -16
$$
MIZ001>003-009>011-084-101400-
WESTERN UPPER MICHIGAN

CITY           SKY/WX    TMP DP  RH WIND       PRES   REMARKS
IRON MOUNTAIN  CLOUDY     2  -6  69 NW13      29.93R WCI -15
HOUGHTON       CLOUDY     4  -3  73 N10       29.97R HAZE    WCI -11
COPPER HARBOR    N/A     10   6  84 NE21G30   29.98R WCI  -9
IRONWOOD       CLOUDY     5   1  85 N6        29.98R WCI  -6
$$

ABBREVIATIONS USED IN REMARKS
   TC - TEMPERATURE IN CELSIUS
  WCI - WIND CHILL INDEX
   HX - HEAT INDEX
  VSB - VISIBILITY





USA.gov is the U.S. government's official web portal to all federal, state and local government web resources and services.